Hourly Data Report for May 23, 2015

All times are specified in Local Standard Time (LST). Add 1 hour to adjust for Daylight Saving Time where and when it is observed.

Metadata including Station Name, Province, Latitude, Longitude, Elevation, Climate ID, WMO ID, TC ID
PUVIRNITUQ A
QUEBEC
Latitude: 60°03'08.000" N Longitude: 77°17'15.000" W Elevation: 25.30 m
Climate ID: 7106223 WMO ID: TC ID: YPX
Hourly Data Report for May 23, 2015
Temp Definition
°C

Dew Point Temp Definition
°C

Rel Hum Definition
%

Wind Dir Definition
10's deg
Wind Spd Definition
km/h

Visibility Definition
km

Stn Press Definition
kPa

Hmdx Definition

Wind Chill Definition

Weather Definition

00:00 Legend Double Dagger -1.2 -1.3 99 20 34 2.8 99.95 -8 Freezing Rain,Fog
01:00 Legend Double Dagger -1.0 -1.1 99 21 30 2.4 99.90 -8 Freezing Rain,Fog
02:00 Legend Double Dagger -0.9 -0.9 100 22 24 14.5 99.85 -7 LegendNANA
03:00 Legend Double Dagger -0.9 -0.9 100 27 21 6.4 99.85 -7 Fog
04:00 Legend Double Dagger -1.4 -1.5 99 29 22 4.8 99.86 -7 Snow
05:00 Legend Double Dagger -1.5 -1.6 99 29 21 9.7 99.90 -7 Fog
06:00 Legend Double Dagger -1.1 -1.2 99 30 30 12.9 99.92 -8 Snow
07:00 Legend Double Dagger -1.7 -2.0 98 30 35 16.1 99.96 -9 LegendNANA
08:00 Legend Double Dagger -2.0 -2.6 96 30 34 16.1 100.01 -10 Snow
09:00 Legend Double Dagger -2.1 -2.8 95 30 37 16.1 100.03 -10 Snow
10:00 Legend Double Dagger -1.8 -2.8 93 30 39 16.1 100.05 -10 Snow
11:00 Legend Double Dagger -1.9 -3.2 91 30 34 16.1 100.09 -9 Snow
12:00 Legend Double Dagger -1.7 -3.4 88 30 28 16.1 100.11 -8 LegendNANA
13:00 Legend Double Dagger -1.6 -3.5 87 30 30 16.1 100.13 -9 LegendNANA
14:00 Legend Double Dagger -1.6 -3.6 87 29 30 16.1 100.17 -9 Snow
15:00 Legend Double Dagger -1.2 -4.4 79 30 28 16.1 100.19 -8 Snow
16:00 Legend Double Dagger -1.1 -4.0 81 29 30 16.1 100.21 -8 Snow
17:00 Legend Double Dagger -1.4 -4.6 79 28 26 16.1 100.20 -8 Snow
18:00 Legend Double Dagger -1.9 -4.7 81 28 22 16.1 100.18 -8 LegendNANA
19:00 Legend Double Dagger -2.1 -3.7 89 28 22 14.5 100.18 -8 LegendNANA
20:00 Legend Double Dagger -2.0 -2.6 96 28 28 9.7 100.15 -9 Snow
21:00 Legend Double Dagger -2.5 -3.3 94 31 30 16.1 100.16 -10 LegendNANA
22:00 Legend Double Dagger -3.4 -4.4 93 30 22 16.1 100.14 -10 LegendNANA
23:00 Legend Double Dagger -3.5 -4.7 91 27 22 16.1 100.12 -10 LegendNANA

Notes on Data Quality.

Legend
  • E = Estimated
  • M = Missing
  • NA = Not Available
  • ‡ = Partner data that is not subject to review by the National Climate Archives